When you browse on this site, cookies collect data to enhance your experience and personalize the content and advertising you see.
Visit our Privacy Policy to learn more. By continuing to use the site, you agree to this use of cookies and data.
  • In Czech Republic
  • List of Countries
  • For 7 days
  • Water Temperature
  • Satellite Maps
  • Weather Map
  • Weather Widgets
  • user-avatar
    Login

    Hourly Weather Aylesbury

    Today, 20 January, Sunday

    Time Temperature Precipitation Wind Pressure Humidity
    00:00 +2°C° 0 mm 1 mps 750 mmHg 91%
    01:00 +1°C° 0 mm 1 mps 750 mmHg 91%
    02:00 +1°C° 0 mm 1 mps 751 mmHg 91%
    03:00 +1°C° 0 mm 1 mps 751 mmHg 91%
    04:00 +1°C° 0 mm 1 mps 751 mmHg 91%
    05:00 0°C° 0 mm 1 mps 752 mmHg 91%
    06:00 0°C° 0 mm 1 mps 752 mmHg 93%
    07:00 0°C° 0 mm 1 mps 753 mmHg 92%
    08:00 +1°C° 0 mm 1 mps 753 mmHg 90%
    09:00 +1°C° 0 mm 1 mps 754 mmHg 89%
    10:00 +2°C° 0 mm 1 mps 754 mmHg 82%
    11:00 +3°C° 0 mm 1 mps 755 mmHg 75%
    12:00 +5°C° 0 mm 1 mps 756 mmHg 68%
    13:00 +5°C° 0 mm 1 mps 756 mmHg 69%
    14:00 +5°C° 0 mm 1 mps 756 mmHg 69%
    15:00 +5°C° 0 mm 1 mps 756 mmHg 69%
    16:00 +4°C° 0 mm 1 mps 757 mmHg 74%
    17:00 +3°C° 0 mm 1 mps 757 mmHg 78%
    18:00 -1°C° 0 mm 2 mps 757 mmHg 83%
    19:00 +1°C° 0 mm 1 mps 758 mmHg 84%
    20:00 +1°C° 0 mm 1 mps 759 mmHg 86%
    21:00 +1°C° 0 mm 1 mps 759 mmHg 88%
    22:00 +1°C° 0 mm 1 mps 759 mmHg 90%
    23:00 +1°C° 0 mm 1 mps 759 mmHg 91%

    Tomorrow, 21 January, Monday

    Time Temperature Precipitation Wind Pressure Humidity
    00:00 +1°C° 0 mm 1 mps 760 mmHg 93%
    01:00 +1°C° 0 mm 1 mps 760 mmHg 94%
    02:00 +1°C° 0 mm 1 mps 760 mmHg 95%
    03:00 +1°C° 0 mm 1 mps 760 mmHg 96%
    04:00 +1°C° 0 mm 1 mps 760 mmHg 95%
    05:00 +1°C° 0 mm 1 mps 760 mmHg 95%
    06:00 0°C° 0 mm 0 mps 759 mmHg 95%
    07:00 +1°C° 0 mm 1 mps 759 mmHg 95%
    08:00 +1°C° 0 mm 1 mps 759 mmHg 95%
    09:00 +2°C° 0 mm 1 mps 759 mmHg 95%
    10:00 +2°C° 0 mm 2 mps 759 mmHg 91%
    11:00 +3°C° 0 mm 2 mps 758 mmHg 86%
    12:00 +4°C° 0 mm 2 mps 758 mmHg 82%
    13:00 +3°C° 0 mm 3 mps 757 mmHg 83%
    14:00 +4°C° 0 mm 3 mps 756 mmHg 83%
    15:00 +4°C° 0 mm 3 mps 756 mmHg 84%
    16:00 +3°C° 0 mm 4 mps 755 mmHg 87%
    17:00 +1°C° 0 mm 4 mps 754 mmHg 90%
    18:00 +1°C° 0 mm 5 mps 754 mmHg 93%
    19:00 +1°C° 0 mm 5 mps 752 mmHg 92%
    20:00 +2°C° 0 mm 6 mps 751 mmHg 90%
    21:00 +2°C° 0 mm 6 mps 749 mmHg 88%
    22:00 +3°C° 0.5 mm 7 mps 748 mmHg 89%
    23:00 +3°C° 0.5 mm 7 mps 747 mmHg 90%

    Day after tomorrow, 22 January, Tuesday

    Time Temperature Precipitation Wind Pressure Humidity
    00:00 +4°C° 0.5 mm 8 mps 746 mmHg 91%
    01:00 +3°C° 1.2 mm 7 mps 745 mmHg 88%
    02:00 +1°C° 1.2 mm 6 mps 744 mmHg 85%
    03:00 0°C° 1.2 mm 5 mps 743 mmHg 82%
    04:00 0°C° 0 mm 5 mps 743 mmHg 83%
    05:00 -1°C° 0 mm 5 mps 743 mmHg 84%
    06:00 -1°C° 0 mm 5 mps 742 mmHg 85%
    07:00 -1°C° 0 mm 5 mps 743 mmHg 85%
    08:00 -2°C° 0 mm 4 mps 743 mmHg 86%
    09:00 -2°C° 0 mm 4 mps 743 mmHg 86%
    10:00 -1°C° 0 mm 4 mps 743 mmHg 82%
    11:00 0°C° 0 mm 5 mps 742 mmHg 78%
    12:00 +1°C° 0 mm 5 mps 742 mmHg 74%
    13:00 +1°C° 0.3 mm 5 mps 742 mmHg 75%
    14:00 +1°C° 0.3 mm 5 mps 742 mmHg 76%
    15:00 0°C° 0.3 mm 5 mps 742 mmHg 77%
    16:00 -1°C° 0 mm 5 mps 742 mmHg 79%
    17:00 -2°C° 0 mm 4 mps 743 mmHg 81%
    18:00 -2°C° 0 mm 4 mps 743 mmHg 83%
    19:00 -3°C° 0 mm 4 mps 743 mmHg 84%
    20:00 -3°C° 0 mm 4 mps 743 mmHg 85%
    21:00 -3°C° 0 mm 4 mps 743 mmHg 85%
    22:00 -4°C° 0 mm 4 mps 743 mmHg 86%
    23:00 -4°C° 0 mm 4 mps 743 mmHg 87%

    23 January, Wednesday

    Time Temperature Precipitation Wind Pressure Humidity
    00:00 -4°C° 0 mm 3 mps 743 mmHg 88%
    01:00 -4°C° 0 mm 3 mps 743 mmHg 88%
    02:00 -4°C° 0 mm 3 mps 744 mmHg 88%
    03:00 -4°C° 0 mm 3 mps 744 mmHg 88%
    04:00 -4°C° 0 mm 3 mps 744 mmHg 89%
    05:00 -4°C° 0 mm 3 mps 744 mmHg 89%
    06:00 -4°C° 0 mm 3 mps 744 mmHg 90%
    07:00 -4°C° 0 mm 3 mps 745 mmHg 89%
    08:00 -4°C° 0 mm 3 mps 745 mmHg 88%
    09:00 -2°C° 0 mm 2 mps 746 mmHg 87%
    10:00 -1°C° 0 mm 3 mps 746 mmHg 82%
    11:00 0°C° 0 mm 3 mps 746 mmHg 78%
    12:00 +2°C° 0 mm 3 mps 747 mmHg 73%
    13:00 +2°C° 0 mm 3 mps 747 mmHg 74%
    14:00 +3°C° 0 mm 2 mps 747 mmHg 75%
    15:00 +3°C° 0 mm 2 mps 747 mmHg 75%
    16:00 +2°C° 0 mm 2 mps 748 mmHg 80%
    17:00 +1°C° 0 mm 2 mps 748 mmHg 84%
    18:00 -1°C° 0 mm 2 mps 748 mmHg 88%
    19:00 -1°C° 0 mm 2 mps 749 mmHg 88%
    20:00 -1°C° 0 mm 2 mps 749 mmHg 88%
    21:00 -1°C° 0 mm 2 mps 749 mmHg 89%
    22:00 -1°C° 0 mm 2 mps 749 mmHg 88%
    23:00 -1°C° 0 mm 2 mps 749 mmHg 87%

    24 January, Thursday

    Time Temperature Precipitation Wind Pressure Humidity
    00:00 +1°C° 0 mm 2 mps 749 mmHg 87%
    01:00 +1°C° 0.1 mm 2 mps 748 mmHg 88%
    02:00 +1°C° 0.1 mm 2 mps 748 mmHg 89%
    03:00 +1°C° 0.1 mm 2 mps 748 mmHg 91%
    04:00 +1°C° 0.2 mm 2 mps 748 mmHg 92%
    05:00 +2°C° 0.2 mm 1 mps 747 mmHg 93%
    06:00 +2°C° 0.2 mm 1 mps 747 mmHg 95%
    07:00 +3°C° 0.1 mm 1 mps 747 mmHg 95%
    08:00 +3°C° 0.1 mm 1 mps 747 mmHg 95%
    09:00 +3°C° 0.1 mm 1 mps 748 mmHg 95%
    10:00 +4°C° 0 mm 1 mps 748 mmHg 92%
    11:00 +3°C° 0 mm 0 mps 748 mmHg 90%
    12:00 +4°C° 0 mm 0 mps 749 mmHg 87%
    13:00 +5°C° 0 mm 1 mps 749 mmHg 89%
    14:00 +5°C° 0 mm 1 mps 749 mmHg 90%
    15:00 +4°C° 0 mm 2 mps 749 mmHg 91%
    16:00 +3°C° 0 mm 2 mps 750 mmHg 92%
    17:00 +2°C° 0 mm 2 mps 751 mmHg 93%
    18:00 +1°C° 0 mm 2 mps 751 mmHg 95%
    19:00 +1°C° 0 mm 2 mps 752 mmHg 94%
    20:00 -1°C° 0 mm 2 mps 753 mmHg 94%
    21:00 -1°C° 0 mm 2 mps 753 mmHg 94%
    22:00 -1°C° 0 mm 2 mps 754 mmHg 94%
    23:00 -1°C° 0 mm 2 mps 754 mmHg 93%

    25 January, Friday

    Time Temperature Precipitation Wind Pressure Humidity
    00:00 -2°C° 0 mm 2 mps 755 mmHg 93%
    01:00 -2°C° 0 mm 2 mps 755 mmHg 93%
    02:00 -2°C° 0 mm 2 mps 755 mmHg 93%
    03:00 0°C° 0 mm 1 mps 756 mmHg 93%
    04:00 0°C° 0 mm 1 mps 756 mmHg 93%
    05:00 0°C° 0 mm 1 mps 756 mmHg 93%
    06:00 -1°C° 0 mm 0 mps 757 mmHg 93%
    07:00 +1°C° 0 mm 1 mps 757 mmHg 92%
    08:00 +1°C° 0 mm 1 mps 757 mmHg 91%
    09:00 +2°C° 0 mm 1 mps 758 mmHg 91%
    10:00 +3°C° 0 mm 1 mps 758 mmHg 89%
    11:00 +2°C° 0 mm 2 mps 758 mmHg 86%
    12:00 +3°C° 0 mm 2 mps 758 mmHg 84%
    13:00 +3°C° 0 mm 2 mps 758 mmHg 84%
    14:00 +3°C° 0 mm 3 mps 758 mmHg 84%
    15:00 +3°C° 0 mm 3 mps 758 mmHg 84%
    16:00 +2°C° 0 mm 3 mps 758 mmHg 87%
    17:00 +2°C° 0 mm 3 mps 758 mmHg 89%
    18:00 +2°C° 0 mm 3 mps 758 mmHg 92%
    19:00 +2°C° 0.1 mm 3 mps 758 mmHg 93%
    20:00 +3°C° 0.1 mm 3 mps 758 mmHg 94%
    21:00 +3°C° 0.1 mm 3 mps 758 mmHg 96%
    22:00 +3°C° 0 mm 3 mps 757 mmHg 97%
    23:00 +3°C° 0 mm 3 mps 757 mmHg 97%
    Show more